QPF
0.02 0.03 0.03 0.03 0.02 0.02 0.01 0.01 0.01 0.01 0.01 0.00 0.00 0.00 0.01 0.01 0.01 0.00 0.00 0.01 0.01 0.01 0.01 0.01 0.01 0.01 0.01 0.01 0.02 0.03 0.03 0.04 0.05 0.05 0.04 0.04 0.03 0.04
0.02 0.02 0.02 0.02 0.02 0.02 0.01 0.01 0.01 0.02 0.01 0.01 0.00 0.00 0.00 0.01 0.01 0.01 0.01 0.01 0.01 0.02 0.02 0.02 0.02 0.02 0.02 0.02 0.03 0.04 0.05 0.05 0.04 0.04 0.03 0.04 0.04 0.04
0.01 0.01 0.01 0.02 0.02 0.02 0.02 0.01 0.01 0.01 0.01 0.01 0.01 0.01 0.01 0.01 0.01 0.01 0.01 0.01 0.01 0.01 0.01 0.02 0.02 0.03 0.03 0.03 0.03 0.03 0.03 0.03 0.03 0.03 0.04 0.04 0.04 0.04
0.01 0.01 0.01 0.01 0.02 0.02 0.02 0.02 0.01 0.01 0.01 0.01 0.01 0.01 0.01 0.00 0.01 0.01 0.01 0.01 0.01 0.01 0.01 0.01 0.01 0.02 0.02 0.02 0.02 0.02 0.02 0.02 0.02 0.02 0.03 0.03 0.04 0.03
0.01 0.01 0.01 0.01 0.02 0.01 0.01 0.01 0.01 0.01 0.01 0.02 0.01 0.01 0.00 0.00 0.00 0.01 0.01 0.01 0.00 0.01 0.01 0.01 0.01 0.01 0.02 0.02 0.02 0.02 0.02 0.02 0.02 0.02 0.02 0.03 0.02 0.03
0.01 0.01 0.01 0.01 0.01 0.01 0.01 0.01 0.01 0.01 0.01 0.02 0.01 0.01 0.01 0.00 0.00 0.00 0.01 0.01 0.00 0.00 0.01 0.01 0.01 0.01 0.01 0.02 0.02 0.02 0.02 0.02 0.02 0.02 0.01 0.01 0.01 0.02
0.00 0.00 0.00 0.00 0.01 0.01 0.01 0.01 0.01 0.01 0.01 0.01 0.01 0.01 0.01 0.01 0.01 0.01 0.01 0.01 0.01 0.01 0.01 0.01 0.01 0.01 0.01 0.01 0.01 0.01 0.01 0.01 0.01 0.01 0.01 0.01 0.01 0.02
0.00 0.00 0.00 0.00 0.00 0.01 0.01 0.01 0.02 0.02 0.02 0.02 0.02 0.02 0.01 0.01 0.01 0.01 0.02 0.02 0.01 0.01 0.01 0.01 0.01 0.01 0.00 0.00 0.01 0.01 0.01 0.01 0.01 0.01 0.01 0.01 0.02 0.02
0.00 0.00 0.00 0.00 0.00 0.00 0.00 0.00 0.01 0.01 0.01 0.02 0.02 0.02 0.01 0.01 0.02 0.02 0.02 0.02 0.02 0.01 0.01 0.01 0.00 0.00 0.00 0.00 0.01 0.01 0.01 0.01 0.01 0.01 0.01 0.01 0.01 0.02
0.00 0.00 0.00 0.00 0.00 0.00 0.00 0.00 0.00 0.00 0.00 0.01 0.01 0.01 0.01 0.02 0.03 0.04 0.04 0.03 0.02 0.01 0.01 0.01 0.01 0.01 0.00 0.00 0.01 0.01 0.01 0.01 0.01 0.01 0.01 0.01 0.01 0.02
0.00 0.00 0.00 0.00 0.00 0.01 0.01 0.01 0.00 0.00 0.00 0.01 0.01 0.01 0.02 0.02 0.02 0.03 0.03 0.03 0.02 0.01 0.01 0.02 0.01 0.01 0.01 0.00 0.00 0.01 0.01 0.01 0.01 0.01 0.01 0.02 0.02 0.02
0.00 0.00 0.00 0.00 0.01 0.01 0.01 0.01 0.02 0.01 0.01 0.01 0.01 0.01 0.01 0.01 0.02 0.02 0.02 0.03 0.03 0.02 0.01 0.01 0.01 0.02 0.02 0.01 0.00 0.00 0.00 0.00 0.01 0.01 0.01 0.02 0.03 0.03
0.01 0.00 0.00 0.00 0.01 0.01 0.02 0.02 0.01 0.01 0.01 0.01 0.01 0.01 0.01 0.01 0.02 0.02 0.02 0.03 0.03 0.03 0.02 0.02 0.03 0.02 0.03 0.02 0.01 0.00 0.00 0.00 0.01 0.01 0.01 0.02 0.02 0.03
0.01 0.01 0.01 0.01 0.01 0.01 0.01 0.01 0.01 0.01 0.01 0.02 0.01 0.01 0.01 0.01 0.02 0.02 0.02 0.03 0.03 0.03 0.03 0.03 0.04 0.04 0.04 0.03 0.01 0.01 0.00 0.01 0.01 0.01 0.01 0.02 0.03 0.03
0.01 0.01 0.01 0.01 0.01 0.01 0.01 0.01 0.01 0.01 0.01 0.01 0.02 0.02 0.02 0.02 0.02 0.02 0.02 0.02 0.02 0.02 0.02 0.02 0.03 0.03 0.03 0.03 0.02 0.01 0.01 0.01 0.01 0.01 0.02 0.02 0.03 0.03
0.02 0.02 0.02 0.01 0.01 0.01 0.01 0.01 0.01 0.02 0.02 0.02 0.02 0.01 0.01 0.02 0.02 0.03 0.03 0.03 0.02 0.02 0.02 0.02 0.02 0.02 0.03 0.02 0.02 0.02 0.02 0.02 0.02 0.02 0.02 0.03 0.03 0.04
0.02 0.02 0.01 0.01 0.01 0.00 0.01 0.01 0.01 0.02 0.02 0.02 0.02 0.02 0.02 0.02 0.02 0.02 0.03 0.03 0.03 0.02 0.02 0.02 0.02 0.02 0.02 0.02 0.02 0.02 0.02 0.02 0.03 0.03 0.03 0.04 0.05 0.05
0.02 0.01 0.01 0.01 0.01 0.01 0.01 0.01 0.01 0.01 0.01 0.02 0.02 0.02 0.02 0.02 0.02 0.02 0.03 0.03 0.03 0.03 0.02 0.02 0.03 0.02 0.02 0.02 0.02 0.02 0.02 0.02 0.03 0.04 0.05 0.05 0.06 0.06
0.01 0.01 0.01 0.01 0.01 0.01 0.01 0.01 0.01 0.01 0.01 0.02 0.02 0.02 0.02 0.03 0.03 0.03 0.03 0.03 0.03 0.03 0.03 0.04 0.04 0.04 0.04 0.03 0.02 0.02 0.03 0.03 0.03 0.03 0.04 0.05 0.05 0.05
0.01 0.01 0.01 0.01 0.01 0.01 0.01 0.01 0.01 0.01 0.01 0.01 0.02 0.02 0.02 0.03 0.03 0.03 0.03 0.03 0.03 0.03 0.03 0.04 0.04 0.05 0.05 0.05 0.04 0.03 0.03 0.03 0.03 0.03 0.03 0.03 0.03 0.03
0.01 0.01 0.01 0.01 0.01 0.01 0.01 0.01 0.01 0.01 0.01 0.01 0.02 0.02 0.03 0.03 0.03 0.03 0.03 0.04 0.04 0.04 0.04 0.04 0.04 0.05 0.05 0.06 0.05 0.04 0.03 0.04 0.03 0.04 0.03 0.04 0.04 0.04
0.01 0.01 0.01 0.01 0.01 0.01 0.01 0.01 0.01 0.01 0.01 0.01 0.02 0.02 0.02 0.03 0.03 0.03 0.03 0.04 0.04 0.04 0.05 0.04 0.04 0.04 0.05 0.06 0.05 0.04 0.03 0.03 0.03 0.03 0.04 0.05 0.06 0.07
0.02 0.02 0.02 0.01 0.02 0.01 0.01 0.01 0.01 0.01 0.01 0.01 0.02 0.02 0.02 0.02 0.02 0.03 0.03 0.03 0.04 0.04 0.04 0.04 0.03 0.03 0.04 0.04 0.04 0.03 0.03 0.03 0.04 0.04 0.05 0.05 0.04 0.05
MSLP
1014.40 1014.54 1014.68 1014.81 1014.88 1014.88 1014.79 1014.62 1014.37 1014.08 1013.76 1013.46 1013.19 1012.97 1012.83 1012.76 1012.76 1012.82 1012.93 1013.09 1013.28 1013.51 1013.77 1014.08 1014.43 1014.84 1015.30 1015.82 1016.37 1016.93 1017.50 1018.02 1018.49 1018.87 1019.15 1019.33 1019.41 1019.41
1013.91 1014.00 1014.11 1014.21 1014.29 1014.30 1014.24 1014.10 1013.88 1013.61 1013.31 1013.00 1012.72 1012.49 1012.33 1012.23 1012.21 1012.24 1012.34 1012.47 1012.65 1012.87 1013.12 1013.42 1013.76 1014.17 1014.63 1015.15 1015.72 1016.32 1016.91 1017.48 1017.99 1018.42 1018.75 1018.97 1019.08 1019.11
1013.62 1013.63 1013.68 1013.75 1013.80 1013.81 1013.76 1013.63 1013.43 1013.18 1012.88 1012.58 1012.30 1012.05 1011.87 1011.75 1011.70 1011.72 1011.79 1011.90 1012.06 1012.25 1012.48 1012.75 1013.07 1013.46 1013.91 1014.43 1015.00 1015.61 1016.24 1016.85 1017.42 1017.91 1018.30 1018.58 1018.75 1018.82
1013.52 1013.46 1013.44 1013.45 1013.47 1013.45 1013.38 1013.24 1013.04 1012.78 1012.49 1012.18 1011.89 1011.63 1011.43 1011.29 1011.23 1011.22 1011.28 1011.37 1011.50 1011.67 1011.86 1012.10 1012.39 1012.75 1013.17 1013.67 1014.25 1014.87 1015.53 1016.19 1016.81 1017.37 1017.83 1018.18 1018.41 1018.53
1013.63 1013.48 1013.39 1013.33 1013.28 1013.21 1013.10 1012.93 1012.70 1012.42 1012.11 1011.78 1011.46 1011.19 1010.97 1010.82 1010.74 1010.73 1010.77 1010.86 1010.98 1011.13 1011.30 1011.51 1011.77 1012.09 1012.48 1012.96 1013.52 1014.15 1014.83 1015.52 1016.20 1016.82 1017.35 1017.77 1018.07 1018.24
1013.88 1013.66 1013.49 1013.36 1013.23 1013.09 1012.91 1012.68 1012.40 1012.07 1011.70 1011.33 1010.98 1010.68 1010.44 1010.29 1010.21 1010.20 1010.25 1010.35 1010.47 1010.62 1010.79 1010.99 1011.23 1011.52 1011.89 1012.34 1012.88 1013.51 1014.19 1014.91 1015.62 1016.28 1016.87 1017.35 1017.70 1017.92
1014.23 1013.95 1013.70 1013.49 1013.27 1013.05 1012.78 1012.47 1012.10 1011.69 1011.25 1010.82 1010.42 1010.07 1009.81 1009.64 1009.57 1009.58 1009.66 1009.79 1009.95 1010.13 1010.32 1010.53 1010.77 1011.06 1011.41 1011.85 1012.37 1012.98 1013.65 1014.37 1015.09 1015.77 1016.39 1016.90 1017.29 1017.54
1014.62 1014.28 1013.96 1013.66 1013.36 1013.04 1012.67 1012.25 1011.78 1011.27 1010.74 1010.22 1009.74 1009.35 1009.05 1008.87 1008.81 1008.85 1008.97 1009.15 1009.38 1009.62 1009.86 1010.12 1010.39 1010.69 1011.05 1011.47 1011.98 1012.56 1013.21 1013.91 1014.62 1015.30 1015.91 1016.43 1016.82 1017.09
1014.98 1014.59 1014.21 1013.84 1013.45 1013.03 1012.55 1012.02 1011.44 1010.81 1010.17 1009.55 1008.99 1008.52 1008.18 1007.98 1007.92 1007.99 1008.16 1008.41 1008.71 1009.04 1009.36 1009.69 1010.02 1010.36 1010.74 1011.17 1011.67 1012.23 1012.85 1013.52 1014.19 1014.84 1015.43 1015.93 1016.31 1016.57
1015.29 1014.85 1014.42 1013.97 1013.51 1012.99 1012.42 1011.78 1011.08 1010.34 1009.58 1008.86 1008.20 1007.66 1007.26 1007.02 1006.95 1007.03 1007.25 1007.56 1007.94 1008.35 1008.77 1009.18 1009.59 1009.99 1010.42 1010.87 1011.37 1011.93 1012.52 1013.15 1013.78 1014.39 1014.94 1015.40 1015.76 1015.99
1015.53 1015.05 1014.56 1014.06 1013.53 1012.94 1012.29 1011.56 1010.76 1009.92 1009.06 1008.23 1007.47 1006.84 1006.36 1006.07 1005.97 1006.04 1006.27 1006.62 1007.06 1007.54 1008.04 1008.54 1009.02 1009.50 1009.99 1010.48 1011.01 1011.57 1012.15 1012.75 1013.34 1013.91 1014.42 1014.85 1015.18 1015.40
1015.71 1015.19 1014.67 1014.12 1013.54 1012.91 1012.20 1011.40 1010.54 1009.61 1008.67 1007.75 1006.90 1006.17 1005.61 1005.24 1005.07 1005.10 1005.30 1005.65 1006.10 1006.62 1007.17 1007.73 1008.29 1008.84 1009.39 1009.94 1010.51 1011.08 1011.68 1012.27 1012.85 1013.39 1013.87 1014.28 1014.59 1014.80
1015.86 1015.31 1014.75 1014.18 1013.58 1012.92 1012.18 1011.36 1010.46 1009.49 1008.49 1007.50 1006.57 1005.76 1005.10 1004.63 1004.37 1004.30 1004.43 1004.72 1005.13 1005.64 1006.20 1006.79 1007.39 1008.00 1008.60 1009.21 1009.83 1010.45 1011.07 1011.68 1012.27 1012.81 1013.30 1013.69 1014.00 1014.22
1016.00 1015.43 1014.85 1014.27 1013.67 1013.01 1012.28 1011.47 1010.56 1009.59 1008.56 1007.53 1006.55 1005.65 1004.90 1004.31 1003.93 1003.73 1003.74 1003.91 1004.23 1004.67 1005.19 1005.76 1006.37 1007.00 1007.66 1008.32 1008.99 1009.67 1010.34 1010.99 1011.61 1012.18 1012.68 1013.10 1013.42 1013.65
1016.16 1015.57 1014.99 1014.42 1013.83 1013.20 1012.50 1011.72 1010.85 1009.90 1008.89 1007.85 1006.83 1005.88 1005.03 1004.33 1003.80 1003.45 1003.30 1003.32 1003.50 1003.81 1004.23 1004.74 1005.32 1005.96 1006.63 1007.34 1008.06 1008.80 1009.53 1010.24 1010.90 1011.51 1012.04 1012.49 1012.84 1013.09
1016.34 1015.74 1015.17 1014.61 1014.06 1013.47 1012.83 1012.11 1011.30 1010.40 1009.43 1008.41 1007.38 1006.39 1005.46 1004.65 1003.98 1003.48 1003.14 1002.98 1002.99 1003.15 1003.44 1003.85 1004.36 1004.96 1005.63 1006.36 1007.13 1007.92 1008.70 1009.47 1010.18 1010.83 1011.40 1011.87 1012.25 1012.52
1016.53 1015.94 1015.38 1014.85 1014.33 1013.79 1013.21 1012.56 1011.83 1011.01 1010.10 1009.13 1008.12 1007.11 1006.14 1005.24 1004.45 1003.79 1003.28 1002.94 1002.76 1002.75 1002.89 1003.18 1003.60 1004.15 1004.79 1005.52 1006.31 1007.13 1007.95 1008.76 1009.51 1010.19 1010.78 1011.27 1011.65 1011.93
1016.72 1016.14 1015.60 1015.10 1014.62 1014.13 1013.61 1013.03 1012.38 1011.64 1010.81 1009.90 1008.93 1007.94 1006.95 1006.00 1005.12 1004.34 1003.69 1003.18 1002.84 1002.67 1002.66 1002.82 1003.14 1003.61 1004.20 1004.91 1005.69 1006.52 1007.36 1008.18 1008.95 1009.63 1010.22 1010.69 1011.06 1011.32
1016.87 1016.31 1015.80 1015.32 1014.86 1014.42 1013.95 1013.44 1012.86 1012.20 1011.46 1010.63 1009.72 1008.77 1007.79 1006.83 1005.90 1005.04 1004.29 1003.66 1003.19 1002.88 1002.74 1002.78 1003.00 1003.39 1003.92 1004.58 1005.33 1006.14 1006.97 1007.77 1008.52 1009.18 1009.74 1010.18 1010.50 1010.72
1016.96 1016.42 1015.93 1015.47 1015.04 1014.63 1014.20 1013.75 1013.24 1012.65 1011.99 1011.24 1010.41 1009.52 1008.59 1007.64 1006.71 1005.82 1005.02 1004.31 1003.75 1003.34 1003.10 1003.04 1003.17 1003.47 1003.93 1004.53 1005.23 1005.99 1006.77 1007.54 1008.24 1008.85 1009.35 1009.73 1009.99 1010.15
1016.94 1016.44 1015.97 1015.53 1015.13 1014.74 1014.34 1013.93 1013.47 1012.95 1012.36 1011.69 1010.94 1010.13 1009.26 1008.37 1007.47 1006.60 1005.79 1005.06 1004.44 1003.97 1003.66 1003.52 1003.57 1003.79 1004.17 1004.69 1005.32 1006.02 1006.74 1007.44 1008.07 1008.62 1009.06 1009.37 1009.56 1009.65
1016.81 1016.34 1015.90 1015.48 1015.10 1014.73 1014.36 1013.98 1013.56 1013.09 1012.56 1011.97 1011.31 1010.58 1009.79 1008.98 1008.14 1007.32 1006.53 1005.81 1005.18 1004.68 1004.32 1004.12 1004.10 1004.24 1004.54 1004.98 1005.53 1006.15 1006.79 1007.41 1007.98 1008.45 1008.82 1009.07 1009.20 1009.22
1016.56 1016.12 1015.71 1015.33 1014.96 1014.61 1014.26 1013.90 1013.52 1013.09 1012.62 1012.09 1011.51 1010.86 1010.17 1009.44 1008.68 1007.92 1007.19 1006.50 1005.89 1005.38 1004.99 1004.75 1004.66 1004.72 1004.94 1005.29 1005.75 1006.27 1006.83 1007.38 1007.88 1008.30 1008.62 1008.81 1008.90 1008.88
Thickness
5565 5563 5561 5559 5557 5555 5553 5550 5549 5551 5556 5554 5547 5542 5536 5533 5530 5528 5526 5524 5522 5521 5519 5518 5517 5516 5515 5514 5513 5513 5513 5513 5514 5515 5516 5518 5519 5520
5554 5553 5551 5549 5547 5545 5543 5541 5538 5537 5539 5542 5536 5531 5526 5522 5519 5518 5517 5514 5513 5511 5510 5509 5508 5506 5505 5504 5504 5503 5502 5502 5502 5503 5503 5505 5506 5507
5545 5543 5541 5539 5537 5535 5533 5530 5528 5525 5525 5527 5523 5519 5515 5512 5510 5508 5506 5505 5505 5503 5501 5499 5498 5496 5495 5494 5493 5492 5491 5491 5490 5490 5491 5492 5493 5494
5536 5534 5532 5529 5527 5525 5522 5520 5517 5514 5512 5513 5511 5508 5505 5501 5499 5498 5497 5496 5495 5494 5491 5489 5488 5487 5485 5484 5483 5482 5481 5480 5479 5479 5479 5480 5481 5481
5525 5523 5521 5519 5517 5515 5512 5509 5506 5503 5500 5499 5499 5497 5494 5491 5489 5488 5487 5486 5485 5483 5482 5480 5479 5477 5475 5474 5473 5472 5471 5470 5469 5468 5468 5468 5468 5468
5514 5512 5511 5508 5506 5503 5501 5498 5495 5492 5489 5488 5487 5486 5484 5481 5478 5478 5478 5476 5475 5473 5472 5470 5469 5467 5466 5464 5463 5462 5460 5459 5458 5457 5457 5456 5456 5457
5504 5502 5499 5496 5493 5491 5488 5486 5483 5481 5478 5477 5476 5476 5474 5471 5468 5466 5465 5466 5465 5463 5462 5461 5460 5459 5458 5456 5454 5452 5450 5449 5448 5446 5445 5445 5445 5446
5493 5490 5488 5485 5482 5479 5476 5473 5470 5469 5468 5466 5466 5465 5464 5461 5457 5454 5453 5453 5455 5454 5450 5452 5449 5450 5448 5446 5444 5442 5440 5439 5437 5436 5435 5436 5436 5437
5480 5478 5476 5473 5470 5468 5465 5462 5460 5457 5455 5455 5455 5454 5452 5450 5447 5445 5443 5441 5442 5441 5438 5442 5441 5440 5439 5436 5434 5432 5430 5429 5428 5427 5426 5427 5428 5429
5466 5464 5463 5461 5457 5455 5454 5453 5451 5449 5448 5446 5445 5444 5441 5438 5435 5433 5432 5431 5431 5429 5427 5429 5432 5431 5429 5427 5425 5423 5421 5420 5419 5418 5418 5419 5420 5421
5453 5451 5449 5447 5444 5442 5442 5442 5442 5441 5439 5436 5434 5433 5431 5428 5425 5423 5422 5421 5423 5423 5419 5417 5420 5420 5420 5419 5417 5415 5413 5412 5411 5411 5410 5411 5412 5413
5440 5438 5435 5433 5431 5429 5429 5430 5431 5431 5429 5428 5427 5425 5423 5420 5417 5413 5412 5410 5410 5412 5411 5406 5406 5404 5409 5412 5409 5407 5406 5406 5405 5404 5403 5404 5404 5404
5427 5425 5423 5420 5419 5418 5417 5417 5417 5417 5417 5417 5417 5415 5413 5411 5408 5405 5402 5400 5399 5399 5399 5394 5393 5391 5390 5397 5400 5398 5397 5398 5397 5397 5397 5397 5397 5395
5412 5411 5410 5408 5407 5406 5406 5405 5404 5404 5405 5405 5404 5404 5402 5400 5398 5396 5394 5391 5390 5388 5387 5384 5382 5382 5381 5384 5388 5391 5389 5388 5389 5389 5390 5390 5390 5390
5398 5397 5396 5395 5395 5395 5394 5393 5392 5392 5392 5392 5392 5391 5389 5388 5388 5387 5386 5384 5383 5381 5379 5377 5375 5374 5373 5374 5377 5379 5380 5381 5380 5381 5381 5382 5383 5383
5385 5384 5383 5383 5382 5382 5382 5381 5380 5380 5379 5379 5379 5379 5378 5378 5378 5377 5376 5376 5376 5375 5372 5369 5368 5367 5367 5366 5366 5369 5370 5371 5372 5372 5373 5374 5375 5375
5372 5372 5372 5372 5372 5371 5371 5370 5369 5369 5368 5368 5368 5368 5368 5368 5368 5367 5366 5366 5366 5367 5366 5363 5361 5359 5359 5358 5360 5361 5362 5363 5364 5364 5365 5368 5370 5370
5360 5361 5361 5360 5360 5359 5359 5359 5358 5358 5357 5357 5357 5357 5357 5358 5358 5357 5356 5356 5356 5357 5356 5356 5354 5354 5355 5355 5352 5354 5355 5356 5357 5357 5357 5360 5365 5366
5348 5349 5349 5349 5348 5347 5347 5347 5347 5347 5346 5347 5347 5347 5347 5347 5347 5347 5347 5347 5347 5347 5347 5347 5346 5346 5348 5351 5351 5347 5347 5349 5350 5352 5353 5354 5358 5361
5337 5337 5337 5337 5336 5336 5336 5337 5337 5336 5336 5337 5337 5337 5337 5337 5337 5337 5337 5336 5337 5338 5339 5339 5338 5337 5337 5339 5342 5343 5341 5341 5344 5347 5349 5351 5353 5356
5326 5326 5326 5325 5325 5326 5326 5327 5326 5327 5327 5327 5327 5327 5327 5327 5327 5327 5327 5327 5328 5330 5331 5332 5331 5330 5329 5331 5335 5339 5339 5338 5338 5339 5342 5346 5350 5354
5315 5315 5315 5315 5315 5316 5316 5317 5318 5318 5318 5318 5318 5318 5318 5317 5318 5318 5319 5319 5320 5321 5323 5324 5325 5325 5326 5327 5330 5333 5336 5337 5338 5338 5339 5341 5343 5349
5305 5305 5305 5306 5306 5306 5307 5308 5309 5309 5310 5310 5310 5310 5309 5309 5310 5310 5311 5312 5313 5314 5316 5318 5319 5320 5321 5322 5324 5327 5330 5333 5336 5339 5341 5342 5344 5346